User: anonymous   Login
Location: Bandys
(35.4750°N, 81.0830°W)
Time: 11:08:15
(UTC-04:00)
Language:

DELTA 2 R/B (1) - Orbit

View from above orbital plane
View from above orbital plane
View from above satellite
View from above satellite

Ground track
Ground track

The orbit data is extracted from the following two-line orbital elements,

1 27665U 03005C   15144.07970846  .00000105  00000-0  75536-4 0  9996
2 27665 039.5768 354.8552 0007514 033.4016 106.1362 14.28338191642935
Epoch (UTC): 24 May 2015 01:54:46
Eccentricity: 0.0007514
inclination: 39.5768°
perigee height: 792 km
apogee height: 802 km
right ascension of ascending node: 354.8552°
argument of perigee: 33.4016°
revolutions per day: 14.28338191
mean anomaly at epoch: 106.1362°
orbit number at epoch: 64293

The dashed part of the orbit path shows where the satellite is in the earth's shadow,  

DLR